Race Coverage Navigation

TS # 34 / Washington, MO  2019

 


TS STATS
TS Distance 77.2 
Total Distance 2027.2 
Miles To Go 1043.05 
TS Climbing 1978 
Total Climbing
TS  Elevation
TS  Net Elevation 3146 
Map Filename Open Map 
Directions Filename  
Latitude 38.54 
Longitude -91.01 
Google Map  TimeStation Map 


TS Arrival Data
Arr Ord  #/Name Arrival DT TS Dst Avg This TS Avg Overall
 1 377 - Christoph Strasser  06/16/2019 20:00 77.2  12.73  16.43 
 2 279 - Marko Baloh  06/17/2019 14:07 77.2  14.8  14.33 
 3 609 - Jakob Olsen  06/17/2019 16:05 77.2  20.5  14.1 
 4 329 - Peter Oyler  06/18/2019 10:55 77.2  7.64  12.49 
 5 617 - SOLO.kiwi (Craig Harper)  06/18/2019 11:24 77.2  5.77  12.42 
 6 367 - Daniela Genovesi  06/18/2019 12:46 77.2  11.33  12.31 
 7 416 - Leah Goldstein  06/18/2019 13:04 77.2  11.94  12.29 
 8 622 - Thomas Odom-Team Kyle Pease Foundation  06/18/2019 14:15 77.2  11.52  12.21 
 9 623 - Ultra Paka Racing Team (Daniel Polman)  06/18/2019 15:45 77.2  8.21  12.1 
 10 615 - Philipp Amhof  06/18/2019 19:54 77.2  13.54  11.81 
 11 603 - Alan Bradley  06/18/2019 23:02 77.2  11.85  11.61 
 12 612 - Markus K. Brandl  06/18/2019 23:09 77.2  3.46  11.59 
 13 611 - Marcelo Soares " MIXIRICA "  06/19/2019 1:48 77.2  10.25  11.42 
 14 559 - Team Martin RAAM 2019 (Martin Bergmeister)  06/19/2019 2:55 77.2  10.03  11.36 
 15 510 - John C. Tarlton  06/19/2019 5:28 77.2  10.29  11.2 
 16 442 - Joe Barr  06/19/2019 6:30 77.2  7.69  11.14 
 17 T411 - team alpha - tischlerei groemmer  06/19/2019 8:20 77.2  21.25  22.78 
 18 411 - Geoff Brunner  06/19/2019 8:24 77.2  7.03  11.03 
 19 T800 - Backstedt Racing Project 14  06/19/2019 8:49 77.2  26.17  22.69 
 20 568 - Alexandra Meixner  06/19/2019 9:35 77.2  8.1  10.93 
 21 604 - Chieko Ozawa  06/19/2019 9:40 77.2  7.54  10.92 
 22 610 - Kabir Rachure  06/19/2019 11:27 77.2  10.16  10.83 
 23 T404 - Gentlemen of speed  06/19/2019 13:29 77.2  19.71  21.51 
 24 529 - Isa Pulver  06/19/2019 13:34 77.2  14.17  10.7 
 25 T401 - Data Techniques powered by Networks Centre  06/19/2019 14:17 77.2  19.3  21.32 
 26 618 - GREGORY ROBINSON  06/19/2019 17:14 77.2  11.44  10.5 
 27 399 - Valerio Zamboni  06/19/2019 18:09 77.2  10  10.47 
 28 T805 - Team Oceanside  06/19/2019 18:52 77.2  20.23  20.41 
 29 T407 - Julian Becker   06/19/2019 19:47 77.2  19.3  20.17 
 30 T807 - Team ZOE International  06/19/2019 19:54 77.2  19.46  20.21 
 31 T201 - EAT WELL  06/19/2019 19:59 77.2  18.38  20.08 
 32 T802 - Scorchers  06/19/2019 21:28 77.2  18.45  19.88 
 33 424 - Team i RON man Veterans supporting Veterans  06/19/2019 22:55 77.2  8.67  10.22 
 34 T416 - Team Rotary Raams Polio  06/19/2019 23:10 77.2  17.82  19.54 
 35 T804 - Team FSHD Skyland Trail  06/19/2019 23:50 77.2  17.16  19.44 
 36 T408 - Radeln-fuer-Kinder (Cycling-for-Kids)  06/20/2019 0:00 77.2  17.82  19.36 
 37 161 - Seana Hogan  06/20/2019 0:35 77.2  9.61  10.11 
 38 T400 - Cantastic4  06/20/2019 1:50 77.2  16.43  19.01 
 39 T808 - Antonia's Friends 2019  06/20/2019 2:46 77.2  16.66  18.92 
 40 T406 - Operation Walk Midwest  06/20/2019 3:57 77.2  16.08  18.65 
 41 T418 - The Opportunists  06/20/2019 5:02 77.2  16.08  18.5 
 42 T410 - Soap-Aid  06/20/2019 9:08 77.2  77.2  17.81 
 43 T414 - Brazil Nuts  06/20/2019 10:06 77.2  17.09  17.67 
 44 T412 - Team Aspect  06/20/2019 10:28 77.2  7.86  17.61 
 45 T202 - Integra Medical - BAA Racing  06/20/2019 12:02 77.2  17.28  17.33 
 46 T803 - Team EndoPark  06/20/2019 12:29 77.2  15.39  17.33 
 47 608 - Elin Starup  06/20/2019 12:46 77.2  6.14  9.53 
 48 T405 - High Rollers  06/20/2019 12:48 77.2  13.66  17.25 
 49 T415 - TEAM FIRE VELO 935  06/20/2019 14:06 77.2  16.91  17.08 
 50 T206 - Project Linear Acceleration  06/20/2019 15:31 77.2  15.24  16.83 
 51 T413 - TEAM BRASIL - SKIPPER  06/20/2019 16:46 77.2  14.7  16.7 
 52 T204 - Lucan CRC  06/20/2019 16:48 77.2  13.83  16.65 
 53 T403 - EKJ Denmark  06/20/2019 17:31 77.2  10.75  16.58 
 54 T402 - EA/WFP RAAM Team  06/20/2019 17:43 77.2  15.14  16.55 
 55 T806 - Team SuperMarrow  06/20/2019 18:03 77.2  14.48  16.55 
 56 T801 - Mind Over Matter  06/20/2019 19:18 77.2  15.34  16.37 
 57 T200 - AIR RELAX GoPro TEAM BRASIL  06/20/2019 19:51 77.2  17.16  16.24 
 58 T417 - Team4RAAM 2019 powered by TGW Living Logistics  06/20/2019 20:24 77.2  15.7  16.22 
 59 T409 - Serpentine Golden Girls  06/21/2019 7:55 77.2  12.13  14.84 
 60 T203 - JPsDuo  06/21/2019 11:52 77.2  12.29  14.4 
 61 T207 - Team Life Time  06/21/2019 13:30 77.2  12.9  14.24 
 62 T205 - Prevent Breast Cancer powered by Endomag  06/21/2019 17:12 77.2  12.32  13.87 
 63 T210 - Bike Wine Team  06/21/2019 18:05 77.2  11.24  13.8